Location: Vanderbilt Beach
(26.2700°N, 81.7900°W)
Time: 00:03:18
(UTC-04:00)

RS-15 - Visible Passes

Search period start: 16 April 2024 00:00
Search period end: 26 April 2024 00:00
Orbit: 1895 x 2150 km, 64.8° (Epoch: 15 April)

Date Brightness Start Highest point End Pass type
(mag) Time Alt. Az. Time Alt. Az. Time Alt. Az.
16 Apr 10.2 01:16:35 10° NW 01:20:02 11° NW 01:23:27 10° NNW visible
16 Apr 10.2 05:55:25 10° N 06:01:56 17° NE 06:08:20 10° E visible
16 Apr 8.9 20:08:23 10° SSE 20:17:04 23° ESE 20:25:29 10° ENE visible
16 Apr 8.2 22:16:18 10° SSW 22:28:27 74° WNW 22:40:11 10° NNE visible
17 Apr 10.0 00:36:11 10° WNW 00:42:55 16° NW 00:49:33 10° N visible
17 Apr 10.4 05:21:18 10° NNE 05:24:54 12° NE 05:28:27 10° ENE visible
17 Apr 8.0 21:40:12 10° SSW 21:52:25 86° ESE 22:04:11 10° NNE visible
17 Apr 9.7 23:57:22 10° W 00:06:04 23° NW 00:14:36 10° N visible
18 Apr 8.0 21:04:28 10° S 21:16:29 66° ESE 21:28:01 10° NNE visible
18 Apr 9.4 23:19:20 10° WSW 23:29:26 31° NW 23:39:17 10° N visible
19 Apr 9.7 06:17:47 10° N 06:27:24 33° NE 06:36:50 10° ESE visible
19 Apr 8.3 20:29:09 10° S 20:40:36 49° ESE 20:51:38 10° NE visible
19 Apr 9.1 22:41:55 10° WSW 22:53:00 41° WNW 23:03:45 10° NNE visible
20 Apr 10.1 05:42:23 10° N 05:50:51 24° NE 05:59:10 10° E visible
20 Apr 8.7 22:04:57 10° SW 22:16:42 54° WNW 22:28:03 10° NNE visible
21 Apr 10.3 00:29:41 10° NW 00:32:17 11° NW 00:34:53 10° NNW visible
21 Apr 10.2 05:07:18 10° N 05:14:07 18° NE 05:20:48 10° E visible
21 Apr 8.3 21:28:25 10° SSW 21:40:32 71° WNW 21:52:14 10° NNE visible
21 Apr 10.2 23:48:47 10° WNW 23:55:08 16° NW 00:01:24 10° N visible
22 Apr 10.4 04:32:58 10° NNE 04:37:08 12° NE 04:41:14 10° ENE visible
22 Apr 8.1 20:52:16 10° SSW 21:04:29 89° ESE 21:16:16 10° NNE visible
22 Apr 9.9 23:09:48 10° W 23:18:15 22° NW 23:26:32 10° N visible
23 Apr 9.1 06:05:23 10° NNW 06:15:52 47° ENE 06:26:10 10° SE visible
23 Apr 8.1 20:16:30 10° SSW 20:28:32 68° ESE 20:40:07 10° NNE visible
23 Apr 9.6 22:31:40 10° WSW 22:41:35 29° NW 22:51:15 10° N visible
24 Apr 9.5 05:29:47 10° N 05:39:32 35° NE 05:49:06 10° ESE visible
24 Apr 9.3 21:54:10 10° WSW 22:05:07 39° NW 22:15:45 10° N visible
25 Apr 9.9 04:54:21 10° N 05:03:01 26° NE 05:11:31 10° ESE visible
25 Apr 8.9 21:17:09 10° SW 21:28:48 52° WNW 21:40:05 10° NNE visible
25 Apr 10.5 23:43:15 10° NW 23:44:32 10° NW 23:45:49 10° NNW visible
